Volver al catálogo

STARLINK-37765

ActivoComunicacionesSSO
NORAD 69337·PAYLOAD·🇺🇸 United States

Lanzado Jun 3, 2026 desde Vandenberg Space Force Base

Loading…

Próximos Pases (próximas 24 horas)

TLE

ActualizadoSource: CelesTrak SupGP

Época: Sep 15, 2026, 03:16 UTC

1 69337C 26122J   26258.13659722 -.00035016  00000+0 -10870-2 0  2581
2 69337  97.2835 286.8042 0001405  86.0975 345.9147 15.33456208    10

Sigue STARLINK-37765 en tiempo real con AllMySat

Download on the App Store